Location: Narrabri
(30.3170°S, 149.7830°E)
Time: 09:18:15
(UTC+10:00)

Amateur Radio Satellites - All Passes

Search period start: 18 August 2017 08:48
Search period end: 19 August 2017 08:48
Location: Narrabri, 30.3170°S, 149.7830°E

Satellite Date Start Highest point End Downlink Frequencies (MHz)
Time Altitude Azimuth
DELFI C3 18 Aug 09:05:16 09:09:12 78° 282° (WNW) 09:13:11 145.870
ZACube-1 18 Aug 09:06:06 09:07:42 12° 272° (W) 09:09:20 437.345
EO-88 18 Aug 09:09:03 09:12:42 64° 103° (ESE) 09:16:25 145.990 - 145.960
FO-29 18 Aug 09:17:14 09:24:45 77° 77° (ENE) 09:32:38 435.910
PRISM 18 Aug 09:17:56 09:20:50 18° 84° (E) 09:23:43 437.425
RS-15 18 Aug 09:24:32 09:35:45 69° 292° (WNW) 09:47:32 29.354- 29.394
UNISAT 6 18 Aug 09:37:05 09:41:42 54° 80° (E) 09:46:10 437.425
Max Valier Satellite 18 Aug 09:40:29 09:43:53 32° 278° (W) 09:47:18 145.860
SO-50 18 Aug 09:53:12 09:56:03 16° 72° (ENE) 09:58:56 436.795
TIGRISAT 18 Aug 10:13:16 10:17:56 61° 256° (WSW) 10:22:26 435.000
PCSat 18 Aug 10:32:53 10:38:17 90° 259° (W) 10:43:45 145.827
M-CUBED/EXP-1 PRIME 18 Aug 10:36:56 10:39:13 16° 78° (ENE) 10:41:35 437.505
ESTCUBE 1 18 Aug 10:42:05 10:46:35 68° 104° (ESE) 10:51:08 437.505/2401.250
LO-87 18 Aug 10:51:28 10:54:52 43° 279° (W) 10:58:21 145.935 - 145.965
PRISM 18 Aug 10:52:35 10:56:01 25° 252° (WSW) 10:59:25 437.425
NANOSAT C BR1 18 Aug 10:58:52 11:01:30 16° 85° (E) 11:04:06 145.865
POLYITAN 1 18 Aug 10:59:36 11:02:37 18° 85° (E) 11:05:36 437.675
FO-29 18 Aug 11:04:18 11:09:01 18° 245° (WSW) 11:13:53 435.910
VELOX 1 18 Aug 11:06:25 11:09:48 22° 110° (ESE) 11:13:13 145.980
QB50P2 18 Aug 11:13:45 11:17:37 31° 82° (E) 11:21:24 145.880/145.840
EO-79 18 Aug 11:15:52 11:19:40 29° 82° (E) 11:23:24 145.935-145.965
UNISAT 6 18 Aug 11:16:13 11:17:49 12° 246° (WSW) 11:19:23 437.425
SO-50 18 Aug 11:31:38 11:36:08 42° 238° (WSW) 11:40:41 436.795
AIST 2D 18 Aug 11:33:59 11:37:22 43° 256° (WSW) 11:40:41 435.315
SPROUT 18 Aug 11:41:30 11:45:46 77° 103° (ESE) 11:50:06 437.525
DUCHIFAT 1 18 Aug 11:50:04 11:54:22 63° 78° (ENE) 11:58:33 145.980
BUGSAT 1 18 Aug 12:05:45 12:09:09 22° 84° (E) 12:12:30 437.445
M-CUBED/EXP-1 PRIME 18 Aug 12:10:34 12:13:33 24° 249° (WSW) 12:16:42 437.505
50 SAT 18 Aug 12:16:15 12:19:31 53° 103° (ESE) 12:22:51 437.505
PCSat 18 Aug 12:21:34 12:22:22 10° 230° (SW) 12:23:10 145.827
NANOSAT C BR1 18 Aug 12:33:23 12:37:11 31° 252° (WSW) 12:40:58 145.865
Gurwin Techsat 1B 18 Aug 12:34:28 12:36:40 12° 87° (E) 12:38:50 435.225
POLYITAN 1 18 Aug 12:34:40 12:38:20 27° 252° (WSW) 12:41:57 437.675
UKube-1 18 Aug 12:41:15 12:45:24 49° 106° (ESE) 12:49:36 .
VELOX 1 18 Aug 12:42:30 12:46:04 24° 277° (W) 12:49:40 145.980
QB50P2 18 Aug 12:50:20 12:53:04 17° 249° (WSW) 12:55:48 145.880/145.840
EO-79 18 Aug 12:52:17 12:55:08 17° 250° (WSW) 12:57:57 145.935-145.965
NO-84 18 Aug 12:54:46 12:58:57 71° 52° (NE) 13:03:21 435.350 FM
DX 1 18 Aug 12:55:04 12:59:22 67° 282° (WNW) 13:03:45 434.975-435.025
BEESAT 18 Aug 13:24:54 13:27:33 15° 113° (ESE) 13:30:14 436.000
Oscar 19 18 Aug 13:27:11 13:32:22 78° 77° (ENE) 13:37:30 437.125/150
MOZHAYETS 4 18 Aug 13:40:10 13:43:07 17° 111° (ESE) 13:46:06
BUGSAT 1 18 Aug 13:41:00 13:44:20 22° 251° (WSW) 13:47:37 437.445
ITUPSAT 1 18 Aug 13:54:58 13:59:12 31° 109° (ESE) 14:03:29 437.325
YUBILEINY 18 Aug 13:55:22 14:02:45 28° 105° (ESE) 14:10:02 435.215
Gurwin Techsat 1B 18 Aug 14:11:36 14:16:53 60° 254° (WSW) 14:22:07 435.225
NO-84 18 Aug 14:34:23 14:36:56 15° 217° (SW) 14:39:30 435.350 FM
ITAMSAT 1 18 Aug 14:39:43 14:43:50 23° 84° (E) 14:47:55 435.822/435.867
BEESAT 18 Aug 15:00:18 15:04:52 45° 280° (W) 15:09:31 436.000
AO-7 18 Aug 15:13:56 15:22:12 59° 76° (ENE) 15:30:23 .
MOZHAYETS 4 18 Aug 15:15:38 15:19:55 36° 278° (W) 15:24:16
CUBESAT XI-V 18 Aug 15:25:50 15:30:19 47° 105° (ESE) 15:34:50 437.345
ITUPSAT 1 18 Aug 15:33:26 15:36:59 20° 276° (W) 15:40:33 437.325
YUBILEINY 18 Aug 15:51:15 15:59:44 51° 270° (W) 16:08:08 435.215
KKS-1 18 Aug 15:52:07 15:56:16 40° 106° (ESE) 16:00:29 437.445
BEESAT 3 18 Aug 16:03:40 16:06:08 17° 70° (ENE) 16:08:35 437.485
ITAMSAT 1 18 Aug 16:18:33 16:23:15 33° 251° (WSW) 16:27:54 435.822/435.867
STARS 18 Aug 16:40:17 16:44:35 58° 104° (ESE) 16:48:58 437.465
AO-85 18 Aug 17:00:28 17:05:36 67° 65° (ENE) 17:10:57 145.980
CUBESAT XI-V 18 Aug 17:05:54 17:07:50 12° 273° (W) 17:09:47 437.345
AO-7 18 Aug 17:07:46 17:14:20 27° 241° (WSW) 17:20:55 .
DOVE 4 18 Aug 17:15:10 17:20:07 71° 80° (E) 17:25:17 437.250
KAITUO 1B 18 Aug 17:17:30 17:19:06 12° 86° (E) 17:20:40 145.475/437.950
LilacSat-2 18 Aug 17:25:33 17:28:45 25° 83° (E) 17:31:54 437.200
KKS-1 18 Aug 17:30:52 17:32:57 13° 274° (W) 17:35:00 437.445
XW-2D 18 Aug 17:33:55 17:37:19 31° 82° (E) 17:40:42 145.860 - 145.880
BEESAT 3 18 Aug 17:40:16 17:43:26 25° 238° (WSW) 17:46:37 437.485
XW-2B 18 Aug 17:44:39 17:48:18 42° 81° (E) 17:51:53 145.730 - 145.750
BEESAT 2 18 Aug 17:45:17 17:49:10 83° 243° (WSW) 17:53:04 435.950
STRAND 1 18 Aug 17:51:51 17:55:47 22° 111° (ESE) 17:59:44 437.568
NUDT-PHONESAT 18 Aug 17:53:44 17:57:15 39° 81° (E) 18:00:43 437.300
CUTE-I 18 Aug 18:02:30 18:07:51 57° 79° (E) 18:13:08 437.470
XW-2C 18 Aug 18:03:24 18:07:13 85° 78° (ENE) 18:10:59 145.795 - 145.815
XW-2F 18 Aug 18:18:28 18:22:13 61° 257° (WSW) 18:25:54 145.980 - 146.000
HO-68 18 Aug 18:24:10 18:30:21 30° 82° (E) 18:36:27 435.675
CUBEBUG 2 18 Aug 18:35:08 18:37:52 15° 87° (E) 18:40:31 437.445
AO-85 18 Aug 18:43:32 18:46:33 15° 230° (SW) 18:49:36 145.980
KAITUO 1B 18 Aug 18:49:51 18:53:06 28° 254° (WSW) 18:56:18 145.475/437.950
DOVE 4 18 Aug 18:56:40 18:57:14 10° 247° (WSW) 18:57:47 437.250
CUTE 1.7 + AOD 2 18 Aug 18:57:36 19:01:46 54° 80° (E) 19:05:53 437.475
LilacSat-2 18 Aug 19:00:29 19:02:45 15° 250° (WSW) 19:05:00 437.200
XW-2D 18 Aug 19:09:36 19:11:08 12° 249° (WSW) 19:12:41 145.860 - 145.880
AAUSAT CUBESAT 2 18 Aug 19:12:58 19:15:59 19° 84° (E) 19:18:59 437.432
ZACube-1 18 Aug 19:22:37 19:25:06 15° 87° (E) 19:27:32 437.345
PCSat 18 Aug 19:27:22 19:31:35 22° 123° (ESE) 19:35:46 145.827
FO-29 18 Aug 19:27:26 19:30:02 14° 117° (ESE) 19:32:44 435.910
STRAND 1 18 Aug 19:30:05 19:34:41 33° 278° (W) 19:39:20 437.568
CUTE-I 18 Aug 19:44:28 19:47:19 15° 245° (WSW) 19:50:10 437.470
AO-73 18 Aug 19:44:52 19:48:30 24° 84° (E) 19:52:02 145.935
XW-2A 18 Aug 19:47:37 19:50:59 54° 257° (WSW) 19:54:17 145.665 - 145.685
SEEDS 18 Aug 19:51:58 19:56:02 49° 255° (WSW) 20:00:03 437.485
SO-50 18 Aug 20:08:27 20:12:50 36° 122° (ESE) 20:17:07 436.795
UWE-3 18 Aug 20:09:42 20:14:21 71° 257° (WSW) 20:18:46 435.000/436.395/437.385
CUBEBUG 2 18 Aug 20:10:08 20:14:34 39° 253° (WSW) 20:18:51 437.445
HO-68 18 Aug 20:11:21 20:18:02 42° 249° (WSW) 20:24:40 435.675
Tancredo 1 18 Aug 20:24:16 20:26:58 34° 50° (NE) 20:29:41 437.200
UNISAT 6 18 Aug 20:30:23 20:34:02 24° 110° (ESE) 20:37:45 437.425
Oscar 11 18 Aug 20:33:10 20:37:31 70° 78° (ENE) 20:41:48 .
O/OREOS (USA 219) 18 Aug 20:34:36 20:38:27 27° 78° (ENE) 20:42:20 437.305
ISS 18 Aug 20:40:03 20:40:51 11° 55° (NE) 20:41:39 437.550
AAUSAT CUBESAT 2 18 Aug 20:47:59 20:51:19 24° 252° (WSW) 20:54:38 437.432
DELFI C3 18 Aug 20:48:35 20:51:32 20° 84° (E) 20:54:27 145.870
nSIGHT-1 18 Aug 20:51:15 20:53:20 16° 54° (NE) 20:55:25 .
ZACube-1 18 Aug 20:57:20 21:01:28 36° 253° (WSW) 21:05:26 437.345
TIGRISAT 18 Aug 21:05:29 21:09:55 56° 104° (ESE) 21:14:31 435.000
FO-29 18 Aug 21:09:16 21:14:24 57° 280° (W) 21:20:01 435.910
PCSat 18 Aug 21:10:01 21:15:03 39° 289° (WNW) 21:20:01 145.827
NO-84 18 Aug 21:11:15 21:15:01 37° 135° (SE) 21:18:28 435.350 FM
Max Valier Satellite 18 Aug 21:15:54 21:19:18 32° 82° (E) 21:22:39 145.860
AO-73 18 Aug 21:21:08 21:24:32 22° 250° (WSW) 21:27:52 145.935
JUGNU 18 Aug 21:27:07 21:29:56 14° 18° (NNE) 21:32:46 437.505
RS-15 18 Aug 21:30:39 21:39:46 31° 75° (ENE) 21:48:44 29.354- 29.394
PRISM 18 Aug 21:35:02 21:39:06 81° 285° (WNW) 21:43:14 437.425
SO-50 18 Aug 21:49:48 21:52:58 18° 289° (WNW) 21:56:04 436.795
Tancredo 1 18 Aug 22:00:45 22:02:18 13° 216° (SW) 22:03:50 437.200
AIST 2D 18 Aug 22:02:40 22:05:34 23° 107° (ESE) 22:08:30 435.315
QB50P2 18 Aug 22:02:40 22:04:12 12° 112° (ESE) 22:05:45 145.880/145.840
EO-79 18 Aug 22:04:54 22:06:06 11° 113° (ESE) 22:07:19 145.935-145.965
UNISAT 6 18 Aug 22:06:51 22:10:34 25° 276° (W) 22:14:22 437.425
ISS 18 Aug 22:13:48 22:16:58 44° 223° (SW) 22:20:09 437.550
O/OREOS (USA 219) 18 Aug 22:14:11 22:17:45 22° 244° (WSW) 22:21:23 437.305
EO-88 18 Aug 22:16:59 22:20:27 39° 255° (WSW) 22:23:52 145.990 - 145.960
DELFI C3 18 Aug 22:23:05 22:26:09 21° 252° (WSW) 22:29:12 145.870
LO-87 18 Aug 22:24:24 22:27:14 21° 84° (E) 22:30:01 145.935 - 145.965
nSIGHT-1 18 Aug 22:26:35 22:29:30 29° 221° (SW) 22:32:26 .
DUCHIFAT 1 18 Aug 22:36:36 22:39:51 22° 109° (ESE) 22:43:08 145.980
ESTCUBE 1 18 Aug 22:41:00 22:44:33 22° 84° (E) 22:48:03 437.505/2401.250
NO-84 18 Aug 22:49:56 22:52:08 15° 299° (WNW) 22:54:13 435.350 FM
M-CUBED/EXP-1 PRIME 18 Aug 22:50:47 22:54:19 51° 285° (WNW) 22:57:40 437.505
Max Valier Satellite 18 Aug 22:51:30 22:52:44 11° 249° (WSW) 22:53:59 145.860
JUGNU 18 Aug 23:13:37 23:18:22 25° 9° (N) 23:23:10 437.505
NANOSAT C BR1 18 Aug 23:18:39 23:22:54 87° 108° (ESE) 23:27:14 145.865
POLYITAN 1 18 Aug 23:20:17 23:24:33 79° 282° (WNW) 23:28:54 437.675
SPROUT 18 Aug 23:33:40 23:36:56 20° 84° (E) 23:40:08 437.525
QB50P2 18 Aug 23:35:26 23:39:31 44° 279° (W) 23:43:40 145.880/145.840
AIST 2D 18 Aug 23:36:47 23:38:42 14° 275° (W) 23:40:37 435.315
EO-79 18 Aug 23:37:15 23:41:21 47° 280° (W) 23:45:31 145.935-145.965
RS-15 18 Aug 23:40:36 23:51:22 59° 238° (WSW) 00:02:05 29.354- 29.394
Gurwin Techsat 1B 18 Aug 23:50:37 23:52:39 12° 115° (ESE) 23:54:43 435.225
LO-87 18 Aug 23:57:59 00:00:26 17° 251° (WSW) 00:02:52 145.935 - 145.965
DUCHIFAT 1 19 Aug 00:11:58 00:15:20 23° 276° (W) 00:18:45 145.980
ESTCUBE 1 19 Aug 00:17:32 00:21:12 25° 251° (WSW) 00:24:50 437.505/2401.250
BUGSAT 1 19 Aug 00:23:35 00:27:40 69° 282° (WNW) 00:31:53 437.445
UKube-1 19 Aug 00:35:40 00:37:42 13° 86° (E) 00:39:44 .
VELOX 1 19 Aug 00:37:03 00:41:33 83° 258° (WSW) 00:46:00 145.980
Oscar 19 19 Aug 00:38:02 00:43:10 63° 105° (ESE) 00:48:20 437.125/150
DX 1 19 Aug 00:49:08 00:53:05 32° 82° (E) 00:57:01 434.975-435.025
JUGNU 19 Aug 01:01:47 01:06:55 30° 359° (N) 01:12:05 437.505
SRMSAT 19 Aug 01:07:41 01:11:56 20° 14° (NNE) 01:16:11 437.500
SPROUT 19 Aug 01:09:08 01:12:42 25° 252° (WSW) 01:16:14 437.525
50 SAT 19 Aug 01:15:40 01:19:05 61° 257° (WSW) 01:22:27 437.505
Gurwin Techsat 1B 19 Aug 01:26:40 01:31:56 66° 282° (WNW) 01:37:17 435.225
AO-85 19 Aug 01:39:54 01:42:25 14° 131° (SE) 01:44:51 145.980
ITAMSAT 1 19 Aug 01:52:29 01:56:12 20° 112° (ESE) 01:59:58 435.822/435.867
BEESAT 3 19 Aug 02:01:39 02:04:55 26° 122° (ESE) 02:08:11 437.485
RS-15 19 Aug 02:01:40 02:06:38 14° 213° (SSW) 02:11:40 29.354- 29.394
ITUPSAT 1 19 Aug 02:02:54 02:05:01 13° 86° (E) 02:07:06 437.325
AO-7 19 Aug 02:06:33 02:14:23 48° 113° (ESE) 02:22:16 .
UKube-1 19 Aug 02:09:44 02:13:49 39° 254° (WSW) 02:17:51 .
Oscar 19 19 Aug 02:21:21 02:22:47 11° 273° (W) 02:24:12 437.125/150
DX 1 19 Aug 02:26:07 02:28:57 17° 249° (WSW) 02:31:47 434.975-435.025
YUBILEINY 19 Aug 02:48:39 02:56:29 39° 93° (E) 03:04:23 435.215
JUGNU 19 Aug 02:50:46 02:55:27 24° 349° (N) 03:00:11 437.505
SRMSAT 19 Aug 02:55:29 03:00:36 29° 4° (N) 03:05:44 437.500
BEESAT 19 Aug 03:05:52 03:10:43 74° 78° (ENE) 03:15:29 436.000
MOZHAYETS 4 19 Aug 03:15:57 03:20:37 82° 79° (E) 03:25:12
AO-85 19 Aug 03:18:35 03:23:18 56° 293° (WNW) 03:27:37 145.980
CUBESAT XI-V 19 Aug 03:29:03 03:32:16 18° 85° (E) 03:35:27 437.345
ITAMSAT 1 19 Aug 03:30:32 03:35:19 38° 279° (W) 03:40:12 435.822/435.867
ITUPSAT 1 19 Aug 03:38:21 03:43:01 49° 254° (WSW) 03:47:37 437.325
BEESAT 3 19 Aug 03:39:42 03:42:14 17° 290° (WNW) 03:44:47 437.485
BEESAT 2 19 Aug 03:45:34 03:49:21 53° 294° (WNW) 03:53:09 435.950
KKS-1 19 Aug 03:50:31 03:52:30 13° 86° (E) 03:54:29 437.445
AO-7 19 Aug 04:00:11 04:07:11 30° 279° (W) 04:14:16 .
DOVE 4 19 Aug 04:15:48 04:19:29 32° 107° (ESE) 04:23:15 437.250
Tancredo 1 19 Aug 04:26:27 04:29:06 28° 139° (SE) 04:31:43 437.200
STARS 19 Aug 04:36:24 04:39:21 17° 85° (E) 04:42:17 437.465
XW-2C 19 Aug 04:39:46 04:42:23 18° 109° (ESE) 04:45:01 145.795 - 145.815
JUGNU 19 Aug 04:41:30 04:43:55 12° 341° (NNW) 04:46:20 437.505
SRMSAT 19 Aug 04:44:16 04:49:20 28° 354° (N) 04:54:24 437.500
YUBILEINY 19 Aug 04:45:18 04:53:07 37° 257° (WSW) 05:01:05 435.215
ISS 19 Aug 04:47:04 04:48:53 14° 145° (SE) 04:50:41 437.550
HO-68 19 Aug 04:50:33 04:53:01 12° 121° (ESE) 04:55:29 435.675
XW-2F 19 Aug 04:53:42 04:56:53 25° 107° (ESE) 05:00:05 145.980 - 146.000
nSIGHT-1 19 Aug 04:58:42 05:01:05 18° 143° (SE) 05:03:27 .
CUBESAT XI-V 19 Aug 05:05:31 05:09:36 31° 252° (WSW) 05:13:40 437.345
CUTE-I 19 Aug 05:18:30 05:23:39 53° 107° (ESE) 05:28:53 437.470
KAITUO 1B 19 Aug 05:23:13 05:26:53 49° 104° (ESE) 05:30:37 145.475/437.950
KKS-1 19 Aug 05:24:53 05:29:11 43° 254° (WSW) 05:33:27 437.445
LilacSat-2 19 Aug 05:34:41 05:38:34 73° 280° (W) 05:42:30 437.200
XW-2D 19 Aug 05:42:34 05:46:22 57° 280° (W) 05:50:13 145.860 - 145.880
CUTE 1.7 + AOD 2 19 Aug 05:45:14 05:48:16 19° 109° (ESE) 05:51:18 437.475
XW-2B 19 Aug 05:53:41 05:57:21 42° 279° (W) 06:01:03 145.730 - 145.750
DOVE 4 19 Aug 05:55:06 05:57:15 14° 274° (W) 05:59:25 437.250
NUDT-PHONESAT 19 Aug 06:00:17 06:03:56 47° 280° (W) 06:07:38 437.300
Tancredo 1 19 Aug 06:02:32 06:04:05 13° 306° (NW) 06:05:39 437.200
STRAND 1 19 Aug 06:09:47 06:11:33 12° 87° (E) 06:13:18 437.568
STARS 19 Aug 06:11:42 06:15:40 32° 252° (WSW) 06:19:36 437.465
XW-2C 19 Aug 06:13:15 06:16:21 23° 276° (W) 06:19:28 145.795 - 145.815
XW-2A 19 Aug 06:13:48 06:16:09 17° 108° (ESE) 06:18:31 145.665 - 145.685
ISS 19 Aug 06:22:19 06:25:34 48° 311° (NW) 06:28:45 437.550
XW-2F 19 Aug 06:28:34 06:30:56 16° 275° (W) 06:33:19 145.980 - 146.000
HO-68 19 Aug 06:32:24 06:39:36 83° 106° (ESE) 06:46:53 435.675
SRMSAT 19 Aug 06:34:00 06:37:59 18° 345° (NNW) 06:41:57 437.500
nSIGHT-1 19 Aug 06:34:31 06:37:30 31° 309° (NW) 06:40:27 .
AO-73 19 Aug 06:37:07 06:37:54 10° 114° (ESE) 06:38:41 145.935
SEEDS 19 Aug 06:37:17 06:41:22 49° 105° (ESE) 06:45:29 437.485
RS-15 19 Aug 06:37:32 06:46:01 24° 136° (SE) 06:54:43 29.354- 29.394
O/OREOS (USA 219) 19 Aug 06:50:31 06:53:58 21° 116° (ESE) 06:57:22 437.305
UWE-3 19 Aug 07:00:14 07:04:33 45° 106° (ESE) 07:09:01 435.000/436.395/437.385
CUTE-I 19 Aug 07:01:08 07:03:55 14° 274° (W) 07:06:43 437.470
CUBEBUG 2 19 Aug 07:01:20 07:05:51 84° 101° (E) 07:10:34 437.445
CUTE 1.7 + AOD 2 19 Aug 07:20:14 07:23:51 26° 277° (W) 07:27:30 437.475
Oscar 11 19 Aug 07:22:26 07:26:03 26° 108° (ESE) 07:29:41 .
AAUSAT CUBESAT 2 19 Aug 07:31:01 07:35:11 81° 281° (W) 07:39:22 437.432
STRAND 1 19 Aug 07:45:52 07:51:00 60° 255° (WSW) 07:56:04 437.568
ZACube-1 19 Aug 07:46:04 07:50:35 83° 101° (ESE) 07:55:15 437.345
XW-2A 19 Aug 07:46:17 07:48:42 18° 276° (W) 07:51:09 145.665 - 145.685
AO-73 19 Aug 08:09:03 08:13:30 58° 280° (W) 08:18:05 145.935
FO-29 19 Aug 08:23:11 08:29:42 30° 84° (E) 08:36:23 435.910
HO-68 19 Aug 08:24:52 08:27:53 13° 273° (W) 08:30:55 435.675
O/OREOS (USA 219) 19 Aug 08:29:28 08:33:18 27° 282° (WNW) 08:37:05 437.305
UWE-3 19 Aug 08:39:08 08:41:10 13° 272° (W) 08:43:14 435.000/436.395/437.385
